| time (UTC) | temp C | wind direction | speed KPH | gust KPH | rain 1hr cm | rain 24hr cm | rain mn cm | humidity % | barometer mb |
| 20260504201549 | 10 | 316 | 3.2 | 11.3 | 0.00 | 0.00 | 0.00 | 84 | 1015.6 |
| 20260504201044 | 10 | 313 | 4.8 | 9.7 | 0.00 | 0.00 | 0.00 | 84 | 1015.7 |
| 20260504200544 | 10 | 312 | 3.2 | 11.3 | 0.00 | 0.00 | 0.00 | 83 | 1015.6 |
| 20260504200053 | 10 | 310 | 6.4 | 11.3 | 0.00 | 0.00 | 0.00 | 82 | 1015.6 |
| 20260504195544 | 11 | 325 | 6.4 | 11.3 | 0.00 | 0.00 | 0.00 | 82 | 1015.6 |
| 20260504195044 | 11 | 316 | 1.6 | 11.3 | 0.00 | 0.00 | 0.00 | 81 | 1015.7 |
| 20260504194600 | 11 | 317 | 3.2 | 6.4 | 0.00 | 0.00 | 0.00 | 80 | 1015.6 |
| 20260504194042 | 11 | 323 | 0.0 | 3.2 | 0.00 | 0.00 | 0.00 | 81 | 1015.7 |
| 20260504193544 | 11 | 323 | 0.0 | 4.8 | 0.00 | 0.00 | 0.00 | 81 | 1015.6 |
| 20260504193053 | 11 | 0 | 0.0 | 4.8 | 0.00 | 0.00 | 0.00 | 81 | 1015.5 |
| 20260504192545 | 11 | 0 | 0.0 | 4.8 | 0.00 | 0.00 | 0.00 | 80 | 1015.6 |
| 20260504192043 | 11 | 323 | 1.6 | 4.8 | 0.00 | 0.00 | 0.00 | 82 | 1015.7 |
| 20260504191551 | 11 | 0 | 0.0 | 8.0 | 0.00 | 0.00 | 0.00 | 82 | 1015.6 |
| 20260504191044 | 11 | 0 | 3.2 | 8.0 | 0.00 | 0.00 | 0.00 | 82 | 1015.6 |
| 20260504190544 | 11 | 0 | 0.0 | 8.0 | 0.00 | 0.00 | 0.00 | 83 | 1015.6 |
| 20260504190121 | 10 | 306 | 0.0 | 6.4 | 0.00 | 0.00 | 0.00 | 85 | 1015.5 |
| 20260504185544 | 10 | 306 | 1.6 | 6.4 | 0.00 | 0.00 | 0.00 | 84 | 1015.6 |
| 20260504185045 | 10 | 321 | 3.2 | 4.8 | 0.00 | 0.00 | 0.00 | 85 | 1015.5 |
| 20260504184553 | 10 | 0 | 0.0 | 4.8 | 0.00 | 0.00 | 0.00 | 84 | 1015.6 |
| 20260504184047 | 10 | 0 | 1.6 | 4.8 | 0.00 | 0.00 | 0.00 | 84 | 1015.6 |
| 20260504183545 | 10 | 322 | 3.2 | 8.0 | 0.00 | 0.00 | 0.00 | 83 | 1015.6 |
| 20260504183051 | 10 | 0 | 3.2 | 8.0 | 0.00 | 0.00 | 0.00 | 82 | 1015.5 |
| 20260504182544 | 11 | 0 | 1.6 | 8.0 | 0.00 | 0.00 | 0.00 | 82 | 1015.6 |
| 20260504182045 | 11 | 329 | 3.2 | 8.0 | 0.00 | 0.00 | 0.00 | 82 | 1015.6 |
| 20260504181555 | 11 | 319 | 1.6 | 6.4 | 0.00 | 0.00 | 0.00 | 81 | 1015.4 |
| 20260504181044 | 11 | 0 | 1.6 | 6.4 | 0.00 | 0.00 | 0.00 | 80 | 1015.4 |
| 20260504180546 | 11 | 0 | 3.2 | 6.4 | 0.00 | 0.00 | 0.00 | 80 | 1015.4 |
| 20260504180052 | 11 | 302 | 1.6 | 6.4 | 0.00 | 0.00 | 0.00 | 80 | 1015.4 |
| 20260504175543 | 11 | 302 | 3.2 | 6.4 | 0.00 | 0.00 | 0.00 | 80 | 1015.1 |
| 20260504175044 | 11 | 268 | 0.0 | 6.4 | 0.00 | 0.00 | 0.00 | 80 | 1015.2 |
| 20260504174559 | 11 | 0 | 0.0 | 0.0 | 0.00 | 0.00 | 0.00 | 79 | 1015.1 |
| 20260504174044 | 11 | 0 | 0.0 | 4.8 | 0.00 | 0.00 | 0.00 | 78 | 1015.1 |
| 20260504173543 | 11 | 0 | 0.0 | 4.8 | 0.00 | 0.00 | 0.00 | 79 | 1015.0 |
| 20260504173052 | 11 | 0 | 0.0 | 4.8 | 0.00 | 0.00 | 0.00 | 76 | 1015.0 |
| 20260504172544 | 11 | 0 | 0.0 | 0.0 | 0.00 | 0.00 | 0.00 | 77 | 1015.0 |
| 20260504172045 | 11 | 0 | 0.0 | 0.0 | 0.00 | 0.00 | 0.00 | 78 | 1014.9 |
| 20260504171551 | 11 | 0 | 0.0 | 0.0 | 0.00 | 0.00 | 0.00 | 78 | 1015.0 |
| 20260504171045 | 11 | 0 | 0.0 | 3.2 | 0.00 | 0.00 | 0.00 | 78 | 1014.8 |
| 20260504170544 | 11 | 0 | 0.0 | 3.2 | 0.00 | 0.00 | 0.00 | 77 | 1014.7 |
| 20260504151044 | 8 | 0 | 0.0 | 6.4 | 0.00 | 0.03 | 0.00 | 86 | 1014.8 |
| 20260504150544 | 8 | 306 | 1.6 | 6.4 | 0.00 | 0.03 | 0.00 | 86 | 1014.8 |
| 20260504141044 | 7 | 0 | 0.0 | 0.0 | 0.00 | 0.03 | 0.00 | 92 | 1014.5 |
| 20260504140544 | 7 | 0 | 0.0 | 0.0 | 0.00 | 0.03 | 0.00 | 92 | 1014.5 |
| 20260504130544 | 7 | 0 | 0.0 | 0.0 | 0.00 | 0.03 | 0.00 | 93 | 1014.1 |
| 20260504110544 | 7 | 0 | 0.0 | 0.0 | 0.00 | 0.03 | 0.00 | 93 | 1014.2 |
| 20260504100546 | 7 | 0 | 0.0 | 0.0 | 0.00 | 0.03 | 0.00 | 94 | 1014.1 |
| 20260504100218 | 7 | 0 | 0.0 | 0.0 | 0.00 | 0.03 | 0.00 | 94 | 1014.1 |
| 20260504081549 | 7 | 178 | 1.6 | 3.2 | 0.00 | 0.03 | 0.00 | 93 | 1014.7 |
| 20260504081044 | 7 | 0 | 0.0 | 3.2 | 0.00 | 0.03 | 0.00 | 93 | 1014.7 |
| 20260504080545 | 7 | 0 | 0.0 | 3.2 | 0.00 | 0.03 | 0.00 | 93 | 1014.7 |
| 20260504050544 | 7 | 0 | 0.0 | 3.2 | 0.00 | 0.03 | 0.03 | 91 | 1014.8 |
| 20260504050114 | 7 | 0 | 0.0 | 3.2 | 0.00 | 0.03 | 0.03 | 91 | 1014.6 |
| 20260504045547 | 7 | 0 | 0.0 | 3.2 | 0.00 | 0.03 | 0.03 | 90 | 1014.6 |
| 20260504045045 | 7 | 119 | 0.0 | 3.2 | 0.00 | 0.03 | 0.03 | 90 | 1014.4 |
| 20260504044552 | 7 | 119 | 1.6 | 3.2 | 0.00 | 0.03 | 0.03 | 90 | 1014.5 |
| 20260504044043 | 7 | 0 | 0.0 | 1.6 | 0.00 | 0.03 | 0.03 | 90 | 1014.4 |
| 20260504043544 | 7 | 0 | 0.0 | 0.0 | 0.00 | 0.03 | 0.03 | 89 | 1014.5 |
| 20260504043106 | 7 | 0 | 0.0 | 0.0 | 0.00 | 0.03 | 0.03 | 89 | 1014.3 |
| 20260504042543 | 7 | 0 | 0.0 | 0.0 | 0.00 | 0.03 | 0.03 | 89 | 1014.3 |
| 20260504042044 | 7 | 0 | 0.0 | 0.0 | 0.00 | 0.03 | 0.03 | 89 | 1014.4 |
| 20260504041550 | 7 | 0 | 0.0 | 0.0 | 0.00 | 0.03 | 0.03 | 88 | 1014.2 |
| 20260504041044 | 7 | 0 | 0.0 | 3.2 | 0.00 | 0.03 | 0.03 | 88 | 1014.1 |
| 20260504040545 | 7 | 0 | 0.0 | 3.2 | 0.00 | 0.03 | 0.03 | 88 | 1014.1 |
| 20260504040100 | 7 | 0 | 0.0 | 4.8 | 0.00 | 0.03 | 0.03 | 88 | 1014.0 |
| 20260504035544 | 7 | 0 | 0.0 | 4.8 | 0.00 | 0.03 | 0.03 | 88 | 1013.9 |
| 20260504035044 | 8 | 222 | 0.0 | 1.6 | 0.00 | 0.03 | 0.03 | 88 | 1013.9 |
| 20260504034601 | 8 | 0 | 0.0 | 4.8 | 0.00 | 0.03 | 0.03 | 87 | 1013.8 |
| 20260504034043 | 8 | 0 | 0.0 | 4.8 | 0.00 | 0.03 | 0.03 | 87 | 1013.7 |
| 20260504033544 | 8 | 254 | 0.0 | 3.2 | 0.00 | 0.03 | 0.03 | 87 | 1013.5 |
| 20260504033056 | 8 | 254 | 0.0 | 1.6 | 0.00 | 0.03 | 0.03 | 87 | 1013.6 |
| 20260504032544 | 8 | 0 | 0.0 | 1.6 | 0.00 | 0.03 | 0.03 | 87 | 1013.5 |
| 20260504032047 | 8 | 254 | 0.0 | 1.6 | 0.00 | 0.03 | 0.03 | 87 | 1013.3 |
| 20260504031604 | 8 | 0 | 0.0 | 1.6 | 0.00 | 0.03 | 0.03 | 86 | 1013.3 |
| 20260504031043 | 8 | 0 | 0.0 | 1.6 | 0.00 | 0.03 | 0.03 | 86 | 1013.2 |
| 20260504030543 | 8 | 0 | 0.0 | 1.6 | 0.00 | 0.03 | 0.03 | 85 | 1013.1 |
| 20260504030054 | 8 | 0 | 0.0 | 1.6 | 0.00 | 0.03 | 0.03 | 85 | 1013.2 |
| 20260504025543 | 8 | 0 | 0.0 | 3.2 | 0.00 | 0.03 | 0.03 | 84 | 1013.2 |
| 20260504025044 | 8 | 0 | 0.0 | 8.0 | 0.00 | 0.03 | 0.03 | 84 | 1013.1 |
| 20260504024558 | 8 | 194 | 0.0 | 8.0 | 0.00 | 0.03 | 0.03 | 83 | 1013.1 |
| 20260504024044 | 9 | 0 | 1.6 | 8.0 | 0.00 | 0.03 | 0.03 | 83 | 1012.9 |
| 20260504023544 | 9 | 0 | 0.0 | 4.8 | 0.00 | 0.03 | 0.03 | 82 | 1013.1 |
| 20260504023048 | 9 | 0 | 0.0 | 4.8 | 0.00 | 0.03 | 0.03 | 81 | 1013.1 |
| 20260504022544 | 9 | 0 | 1.6 | 4.8 | 0.00 | 0.03 | 0.03 | 80 | 1013.0 |
| 20260504022043 | 9 | 218 | 0.0 | 6.4 | 0.00 | 0.03 | 0.03 | 80 | 1013.0 |
| 20260504021554 | 10 | 0 | 1.6 | 6.4 | 0.00 | 0.03 | 0.03 | 79 | 1013.1 |
| 20260504021043 | 10 | 218 | 3.2 | 6.4 | 0.00 | 0.03 | 0.03 | 78 | 1013.0 |
| 20260504020541 | 10 | 205 | 0.0 | 4.8 | 0.00 | 0.03 | 0.03 | 79 | 1013.1 |
| 20260504020051 | 10 | 175 | 0.0 | 6.4 | 0.00 | 0.03 | 0.03 | 79 | 1013.1 |
| 20260504015542 | 10 | 0 | 0.0 | 8.0 | 0.00 | 0.03 | 0.03 | 80 | 1013.1 |
| 20260504015041 | 10 | 0 | 3.2 | 8.0 | 0.00 | 0.03 | 0.03 | 80 | 1013.1 |
| 20260504014601 | 10 | 250 | 0.0 | 6.4 | 0.00 | 0.03 | 0.03 | 80 | 1013.2 |
| 20260504014044 | 10 | 0 | 0.0 | 6.4 | 0.00 | 0.03 | 0.03 | 80 | 1013.1 |
| 20260504013540 | 11 | 0 | 0.0 | 6.4 | 0.00 | 0.03 | 0.03 | 80 | 1013.2 |
| 20260504013100 | 11 | 0 | 0.0 | 4.8 | 0.00 | 0.03 | 0.03 | 80 | 1013.2 |
| 20260504012545 | 11 | 240 | 1.6 | 4.8 | 0.00 | 0.03 | 0.03 | 79 | 1013.3 |
| 20260504012041 | 11 | 0 | 0.0 | 4.8 | 0.00 | 0.03 | 0.03 | 78 | 1013.2 |
| 20260504011551 | 11 | 348 | 1.6 | 4.8 | 0.00 | 0.03 | 0.03 | 78 | 1013.1 |
| 20260504011039 | 11 | 348 | 1.6 | 4.8 | 0.00 | 0.03 | 0.03 | 77 | 1013.2 |
| 20260504010541 | 11 | 0 | 0.0 | 4.8 | 0.00 | 0.03 | 0.03 | 77 | 1013.2 |
| 20260504010113 | 11 | 0 | 1.6 | 9.7 | 0.00 | 0.03 | 0.03 | 76 | 1013.1 |
| 20260504005542 | 11 | 299 | 3.2 | 9.7 | 0.00 | 0.03 | 0.03 | 76 | 1013.1 |
| 20260504005042 | 11 | 263 | 1.6 | 6.4 | 0.00 | 0.03 | 0.03 | 73 | 1013.1 |
| 20260504004553 | 11 | 248 | 1.6 | 6.4 | 0.00 | 0.03 | 0.03 | 73 | 1013.0 |
| 20260504004044 | 11 | 300 | 3.2 | 8.0 | 0.00 | 0.03 | 0.03 | 72 | 1012.9 |
| 20260504003546 | 12 | 194 | 3.2 | 8.0 | 0.00 | 0.03 | 0.03 | 70 | 1012.9 |
| 20260504003050 | 12 | 221 | 3.2 | 9.7 | 0.00 | 0.03 | 0.03 | 69 | 1012.9 |
| 20260504002540 | 12 | 212 | 3.2 | 9.7 | 0.00 | 0.03 | 0.03 | 68 | 1012.9 |
| 20260504002043 | 12 | 188 | 1.6 | 9.7 | 0.00 | 0.03 | 0.03 | 68 | 1013.0 |
| 20260504001600 | 12 | 228 | 3.2 | 9.7 | 0.00 | 0.03 | 0.03 | 67 | 1012.9 |
| 20260504001043 | 12 | 247 | 3.2 | 11.3 | 0.00 | 0.03 | 0.03 | 68 | 1012.9 |
| 20260504000539 | 12 | 240 | 3.2 | 11.3 | 0.00 | 0.03 | 0.03 | 67 | 1012.8 |
| 20260504000058 | 12 | 145 | 1.6 | 12.9 | 0.00 | 0.03 | 0.03 | 68 | 1012.8 |
| 20260503235547 | 12 | 238 | 3.2 | 12.9 | 0.00 | 0.03 | 0.03 | 68 | 1012.8 |
| 20260503235040 | 12 | 200 | 3.2 | 11.3 | 0.00 | 0.03 | 0.03 | 68 | 1012.8 |
| 20260503234551 | 12 | 0 | 1.6 | 8.0 | 0.00 | 0.03 | 0.03 | 74 | 1012.7 |
| 20260503234041 | 12 | 255 | 1.6 | 9.7 | 0.00 | 0.03 | 0.03 | 73 | 1012.9 |
| 20260503233541 | 12 | 202 | 3.2 | 9.7 | 0.00 | 0.03 | 0.03 | 69 | 1012.9 |
| 20260503233059 | 12 | 202 | 3.2 | 8.0 | 0.00 | 0.03 | 0.03 | 69 | 1012.9 |
| 20260503232542 | 12 | 219 | 1.6 | 8.0 | 0.00 | 0.03 | 0.03 | 70 | 1012.9 |
| 20260503232040 | 12 | 241 | 1.6 | 8.0 | 0.00 | 0.03 | 0.03 | 70 | 1012.9 |
| 20260503231550 | 12 | 191 | 1.6 | 8.0 | 0.00 | 0.03 | 0.03 | 70 | 1012.9 |
| 20260503231041 | 12 | 0 | 0.0 | 4.8 | 0.00 | 0.03 | 0.03 | 76 | 1013.1 |
| 20260503230544 | 12 | 0 | 0.0 | 4.8 | 0.00 | 0.03 | 0.03 | 71 | 1013.0 |
| 20260503230051 | 12 | 0 | 1.6 | 9.7 | 0.00 | 0.03 | 0.03 | 73 | 1012.9 |
| 20260503225546 | 11 | 0 | 0.0 | 9.7 | 0.00 | 0.03 | 0.03 | 74 | 1013.0 |
| 20260503225043 | 11 | 88 | 1.6 | 8.0 | 0.00 | 0.03 | 0.03 | 73 | 1013.2 |
| 20260503224547 | 11 | 198 | 3.2 | 9.7 | 0.00 | 0.03 | 0.03 | 74 | 1013.1 |
| 20260503224043 | 11 | 219 | 3.2 | 9.7 | 0.00 | 0.03 | 0.03 | 75 | 1013.3 |
| 20260503223543 | 11 | 221 | 0.0 | 9.7 | 0.00 | 0.03 | 0.03 | 77 | 1013.1 |
| 20260503223050 | 11 | 210 | 3.2 | 9.7 | 0.00 | 0.03 | 0.03 | 77 | 1013.2 |
| 20260503222544 | 11 | 203 | 3.2 | 12.9 | 0.00 | 0.03 | 0.03 | 78 | 1013.2 |
| 20260503221733 | 11 | 188 | 4.8 | 11.3 | 0.00 | 0.03 | 0.03 | 78 | 1013.2 |
| 20260503221041 | 11 | 209 | 1.6 | 9.7 | 0.00 | 0.03 | 0.03 | 80 | 1013.2 |
| 20260503220545 | 11 | 207 | 1.6 | 9.7 | 0.00 | 0.03 | 0.03 | 79 | 1013.2 |
| 20260503220057 | 11 | 213 | 4.8 | 9.7 | 0.00 | 0.03 | 0.03 | 79 | 1013.2 |
| 20260503215545 | 11 | 211 | 0.0 | 6.4 | 0.00 | 0.03 | 0.03 | 80 | 1013.3 |
| 20260503215040 | 11 | 0 | 1.6 | 8.0 | 0.00 | 0.03 | 0.03 | 79 | 1013.2 |
| 20260503214551 | 11 | 201 | 3.2 | 8.0 | 0.00 | 0.03 | 0.03 | 78 | 1013.3 |
| 20260503214044 | 11 | 204 | 3.2 | 8.0 | 0.00 | 0.03 | 0.03 | 77 | 1013.2 |
| 20260503213548 | 11 | 0 | 1.6 | 6.4 | 0.00 | 0.03 | 0.03 | 77 | 1013.2 |
| 20260503213050 | 11 | 225 | 3.2 | 8.0 | 0.00 | 0.03 | 0.03 | 76 | 1013.3 |
| 20260503212544 | 11 | 196 | 1.6 | 8.0 | 0.00 | 0.03 | 0.03 | 74 | 1013.2 |
| 20260503212043 | 12 | 225 | 3.2 | 8.0 | 0.00 | 0.03 | 0.03 | 74 | 1013.1 |
| 20260503211549 | 12 | 215 | 3.2 | 8.0 | 0.00 | 0.03 | 0.03 | 73 | 1013.1 |
| 20260503211043 | 11 | 180 | 1.6 | 8.0 | 0.00 | 0.03 | 0.03 | 74 | 1013.0 |
| 20260503210544 | 11 | 0 | 3.2 | 8.0 | 0.00 | 0.03 | 0.03 | 75 | 1013.1 |
| 20260503210055 | 11 | 213 | 1.6 | 6.4 | 0.00 | 0.03 | 0.03 | 75 | 1013.1 |
| 20260503205544 | 11 | 0 | 0.0 | 8.0 | 0.00 | 0.03 | 0.03 | 78 | 1013.0 |
| 20260503205043 | 11 | 182 | 1.6 | 8.0 | 0.00 | 0.03 | 0.03 | 77 | 1013.1 |
| 20260503204602 | 11 | 108 | 1.6 | 6.4 | 0.00 | 0.03 | 0.03 | 79 | 1013.1 |
| 20260503204046 | 11 | 0 | 0.0 | 6.4 | 0.00 | 0.03 | 0.03 | 80 | 1013.1 |
| 20260503203543 | 11 | 0 | 0.0 | 6.4 | 0.00 | 0.03 | 0.03 | 79 | 1013.1 |
| 20260503203059 | 11 | 205 | 0.0 | 3.2 | 0.00 | 0.03 | 0.03 | 83 | 1013.1 |
| 20260503202540 | 11 | 0 | 0.0 | 3.2 | 0.00 | 0.03 | 0.03 | 82 | 1013.2 |
| 20260503202040 | 11 | 232 | 0.0 | 8.0 | 0.00 | 0.03 | 0.03 | 80 | 1013.2 |